Tracking 21612 objects as of 19-Oct-2020
HD Live streaming from Space Station
objects crossing your sky now

NAVSTAR 64 (USA 206)

Track NAVSTAR 64 (USA 206) now!
NAVSTAR 64 (USA 206) is classified as:


NORAD ID: 35752
Int'l Code: 2009-043A
Perigee: 20,032.7 km
Apogee: 20,347.7 km
Inclination: 54.7 °
Period: 718.0 minutes
Semi major axis: 26561 km
RCS: 6.3 m2 (large)
Launch date: August 17, 2009
Source: United States (US)
Launch site: AIR FORCE EASTERN TEST RANGE (AFETR)
PRN: 5
aabbcc
Your satellite tracking list
Your tracking list is empty




NASA's NSSDC Master Catalog

Two Line Element Set (TLE):
1 35752U 09043A   20292.45759848 +.00000030 +00000-0 +00000-0 0  9996
2 35752 054.6598 110.0519 0059302 049.3173 285.2844 02.00554347081860
Source of the keplerian elements: AFSPC